timestamp,wind_dir_avg,wind_spd_avg,wind_spd_max_dir,wind_spd_gust,battery_voltage,lat,long
2023-03-13 00:04:00+00:00,33.0,13.59,40.0,15.86,12.33,47.59359,-54.27349
2023-03-13 00:14:01+00:00,21.0,12.92,26.0,14.59,12.33,47.59359,-54.27349
2023-03-13 00:24:01+00:00,19.0,11.86,17.0,12.91,12.33,47.59359,-54.27349
2023-03-13 00:34:01+00:00,23.0,11.81,21.0,13.92,12.33,47.59359,-54.27349
2023-03-13 00:44:01+00:00,26.0,11.33,26.0,13.25,12.33,47.59359,-54.27349
2023-03-13 00:54:01+00:00,28.0,12.44,30.0,14.91,12.33,47.59359,-54.27349
2023-03-13 01:04:01+00:00,23.0,11.93,25.0,13.42,12.33,47.59359,-54.27349
2023-03-13 01:14:00+00:00,27.0,11.76,26.0,13.84,12.25,47.59359,-54.27349
2023-03-13 01:24:00+00:00,31.0,10.94,38.0,12.82,12.25,47.59359,-54.27349
2023-03-13 01:34:00+00:00,28.0,12.38,22.0,13.87,12.25,47.59359,-54.27349
2023-03-13 01:44:00+00:00,24.0,12.89,20.0,14.22,12.25,47.59359,-54.27349
2023-03-13 01:54:00+00:00,24.0,11.16,19.0,12.72,12.25,47.59359,-54.27349
2023-03-13 02:04:00+00:00,30.0,13.79,30.0,15.59,12.25,47.59359,-54.27349
2023-03-13 02:14:00+00:00,25.0,12.58,31.0,14.26,12.25,47.59359,-54.27349
2023-03-13 02:24:00+00:00,25.0,12.18,31.0,13.43,12.25,47.59359,-54.27349
2023-03-13 02:34:00+00:00,26.0,12.68,23.0,14.64,12.25,47.59359,-54.27349
2023-03-13 02:44:00+00:00,23.0,12.47,26.0,13.91,12.25,47.59359,-54.27349
2023-03-13 02:54:00+00:00,28.0,10.76,34.0,12.37,12.25,47.59359,-54.27349
2023-03-13 03:04:00+00:00,25.0,11.77,23.0,13.59,12.25,47.59359,-54.27349
2023-03-13 03:14:00+00:00,22.0,12.98,17.0,15.27,12.17,47.59359,-54.27349
2023-03-13 03:24:00+00:00,22.0,12.29,20.0,13.88,12.17,47.59359,-54.27349
2023-03-13 03:34:00+00:00,22.0,11.25,20.0,13.45,12.17,47.59359,-54.27349
2023-03-13 03:44:00+00:00,25.0,9.88,29.0,11.46,12.17,47.59359,-54.27349
2023-03-13 03:54:00+00:00,22.0,10.76,18.0,12.09,12.17,47.59359,-54.27349
2023-03-13 04:04:00+00:00,26.0,11.43,22.0,13.51,12.17,47.59359,-54.27349
2023-03-13 04:14:00+00:00,26.0,11.57,24.0,13.36,12.17,47.59359,-54.27349
2023-03-13 04:24:00+00:00,29.0,12.61,34.0,15.39,12.17,47.59359,-54.27349
2023-03-13 04:34:00+00:00,30.0,12.27,29.0,13.36,12.17,47.59359,-54.27349
2023-03-13 04:44:00+00:00,26.0,10.0,29.0,12.19,12.17,47.59359,-54.27349
2023-03-13 04:54:00+00:00,24.0,12.17,22.0,13.93,12.17,47.59359,-54.27349
2023-03-13 05:04:00+00:00,25.0,10.82,32.0,12.39,12.17,47.59359,-54.27349
2023-03-13 05:14:00+00:00,27.0,10.39,21.0,13.29,12.17,47.59359,-54.27349
2023-03-13 05:24:00+00:00,27.0,11.05,25.0,12.32,12.17,47.59359,-54.27349
2023-03-13 05:34:00+00:00,24.0,10.66,19.0,12.06,12.17,47.59359,-54.27349
2023-03-13 05:44:00+00:00,27.0,10.63,22.0,11.94,12.17,47.59359,-54.27349
2023-03-13 05:54:00+00:00,25.0,11.26,29.0,12.71,12.17,47.59359,-54.27349
2023-03-13 06:04:00+00:00,25.0,11.02,25.0,12.4,12.17,47.59359,-54.27349
2023-03-13 06:14:00+00:00,27.0,10.85,27.0,12.03,12.17,47.59359,-54.27349
2023-03-13 06:24:00+00:00,26.0,11.58,26.0,12.7,12.17,47.59359,-54.27349
2023-03-13 06:34:00+00:00,23.0,12.03,22.0,14.22,12.17,47.59359,-54.27349
2023-03-13 06:44:00+00:00,27.0,11.89,35.0,14.04,12.17,47.59359,-54.27349
2023-03-13 06:54:00+00:00,27.0,13.28,32.0,14.82,12.17,47.59359,-54.27349
2023-03-13 07:04:00+00:00,32.0,11.96,34.0,13.76,12.17,47.59359,-54.27349
2023-03-13 07:14:00+00:00,35.0,13.24,41.0,15.09,12.09,47.59359,-54.27349
2023-03-13 07:24:00+00:00,33.0,13.66,37.0,14.95,12.09,47.59359,-54.27349
2023-03-13 07:34:00+00:00,29.0,12.43,30.0,14.1,12.09,47.59359,-54.27349
2023-03-13 07:44:00+00:00,30.0,14.32,33.0,16.05,12.09,47.59359,-54.27349
2023-03-13 07:54:00+00:00,22.0,10.89,21.0,12.29,12.09,47.59359,-54.27349
2023-03-13 08:04:00+00:00,25.0,11.36,28.0,12.61,12.09,47.59359,-54.27349
2023-03-13 08:14:00+00:00,28.0,13.87,31.0,15.73,12.09,47.59359,-54.27349
2023-03-13 08:24:00+00:00,29.0,13.06,34.0,15.23,12.09,47.59359,-54.27349
2023-03-13 08:34:00+00:00,28.0,14.1,27.0,15.98,12.09,47.59359,-54.27349
2023-03-13 08:44:00+00:00,31.0,13.94,36.0,15.84,12.09,47.59359,-54.27349
2023-03-13 08:54:00+00:00,28.0,13.39,39.0,15.35,12.09,47.59359,-54.27349
2023-03-13 09:04:00+00:00,22.0,13.06,18.0,14.38,12.09,47.59359,-54.27349
2023-03-13 09:14:00+00:00,17.0,12.83,13.0,14.75,12.09,47.59359,-54.27349
2023-03-13 09:24:00+00:00,23.0,13.03,23.0,14.08,12.09,47.59359,-54.27349
2023-03-13 09:34:00+00:00,18.0,12.94,18.0,14.9,12.09,47.59359,-54.27349
2023-03-13 09:44:00+00:00,19.0,11.23,12.0,14.17,12.09,47.59359,-54.27349
2023-03-13 09:54:00+00:00,21.0,12.99,22.0,15.05,12.09,47.59359,-54.27349
2023-03-13 10:04:00+00:00,19.0,11.96,15.0,13.73,12.09,47.59359,-54.27349
2023-03-13 10:14:00+00:00,19.0,11.74,19.0,14.3,12.09,47.59359,-54.27349
2023-03-13 10:24:00+00:00,19.0,13.26,19.0,14.83,12.09,47.59359,-54.27349
2023-03-13 10:34:00+00:00,24.0,12.79,26.0,14.17,12.09,47.59359,-54.27349
2023-03-13 10:44:00+00:00,21.0,12.83,21.0,14.63,12.09,47.59359,-54.27349
2023-03-13 10:54:00+00:00,27.0,12.37,28.0,13.65,12.09,47.59359,-54.27349
2023-03-13 11:04:00+00:00,24.0,9.96,20.0,12.74,12.09,47.59359,-54.27349
2023-03-13 11:14:00+00:00,25.0,9.64,20.0,10.75,13.05,47.59359,-54.27349
2023-03-13 11:24:00+00:00,29.0,13.45,34.0,15.15,13.05,47.59359,-54.27349
2023-03-13 11:34:00+00:00,28.0,11.82,36.0,13.58,13.05,47.59359,-54.27349
2023-03-13 11:44:00+00:00,27.0,12.46,26.0,14.04,13.05,47.59359,-54.27349
2023-03-13 11:54:00+00:00,30.0,12.49,35.0,13.93,13.05,47.59359,-54.27349
2023-03-13 12:04:00+00:00,30.0,11.39,35.0,12.69,13.05,47.59359,-54.27349
2023-03-13 12:14:00+00:00,30.0,11.99,39.0,13.82,13.68,47.59359,-54.27349
2023-03-13 12:24:00+00:00,30.0,11.99,32.0,12.97,13.68,47.59359,-54.27349
2023-03-13 12:34:00+00:00,24.0,10.64,21.0,13.64,13.68,47.59359,-54.27349
2023-03-13 12:44:00+00:00,34.0,12.73,41.0,14.65,13.68,47.59359,-54.27349
2023-03-13 12:54:00+00:00,28.0,11.0,26.0,12.46,13.68,47.59359,-54.27349
2023-03-13 13:04:00+00:00,33.0,13.61,36.0,16.43,13.68,47.59359,-54.27349
2023-03-13 13:14:00+00:00,34.0,12.89,37.0,14.65,14.24,47.59359,-54.27349
2023-03-13 13:24:00+00:00,32.0,13.58,37.0,15.35,14.24,47.59359,-54.27349
2023-03-13 13:34:00+00:00,30.0,13.01,37.0,15.55,14.24,47.59359,-54.27349
2023-03-13 13:44:00+00:00,29.0,12.87,35.0,14.71,14.24,47.59359,-54.27349
2023-03-13 13:54:00+00:00,32.0,10.45,33.0,12.92,14.24,47.59359,-54.27349
2023-03-13 14:04:00+00:00,32.0,11.84,35.0,13.0,14.24,47.59359,-54.27349
2023-03-13 14:14:00+00:00,33.0,11.16,36.0,12.2,13.6,47.59359,-54.27349
2023-03-13 14:24:00+00:00,31.0,10.65,35.0,12.61,13.6,47.59359,-54.27349
2023-03-13 14:34:00+00:00,32.0,11.28,36.0,13.18,13.6,47.59359,-54.27349
2023-03-13 14:44:00+00:00,32.0,11.09,32.0,12.86,13.6,47.59359,-54.27349
2023-03-13 14:54:00+00:00,32.0,12.24,32.0,13.5,13.6,47.59359,-54.27349
2023-03-13 15:04:00+00:00,31.0,12.45,33.0,14.86,13.6,47.59359,-54.27349
2023-03-13 15:14:00+00:00,31.0,11.26,34.0,12.9,14.0,47.59359,-54.27349
2023-03-13 15:24:00+00:00,33.0,11.48,33.0,13.34,14.0,47.59359,-54.27349
2023-03-13 15:34:00+00:00,32.0,11.68,32.0,13.42,14.0,47.59359,-54.27349
2023-03-13 15:44:00+00:00,30.0,12.1,32.0,13.49,14.0,47.59359,-54.27349
2023-03-13 15:54:00+00:00,32.0,12.16,32.0,13.7,14.0,47.59359,-54.27349
2023-03-13 16:04:00+00:00,35.0,12.37,32.0,13.8,14.0,47.59359,-54.27349
2023-03-13 16:14:00+00:00,34.0,11.31,33.0,12.7,14.4,47.59359,-54.27349
2023-03-13 16:24:00+00:00,33.0,12.03,30.0,13.4,14.4,47.59359,-54.27349
2023-03-13 16:34:00+00:00,33.0,11.22,37.0,12.91,14.4,47.59359,-54.27349
2023-03-13 16:44:00+00:00,35.0,10.66,38.0,12.45,14.4,47.59359,-54.27349
2023-03-13 16:54:00+00:00,34.0,10.55,42.0,11.93,14.4,47.59359,-54.27349
2023-03-13 17:04:00+00:00,33.0,11.13,36.0,13.11,14.4,47.59359,-54.27349
2023-03-13 17:14:00+00:00,36.0,11.21,34.0,13.13,13.92,47.59359,-54.27349
2023-03-13 17:24:00+00:00,37.0,10.76,42.0,11.96,13.92,47.59359,-54.27349
2023-03-13 17:34:00+00:00,38.0,12.39,38.0,13.98,13.92,47.59359,-54.27349
2023-03-13 17:44:00+00:00,35.0,12.65,35.0,14.39,13.92,47.59359,-54.27349
2023-03-13 17:54:00+00:00,36.0,12.85,35.0,14.19,13.92,47.59359,-54.27349
2023-03-13 18:04:00+00:00,37.0,12.59,35.0,14.26,13.92,47.59359,-54.27349
2023-03-13 18:14:00+00:00,38.0,11.31,36.0,12.57,14.4,47.59359,-54.27349
2023-03-13 18:24:00+00:00,37.0,11.31,35.0,12.38,14.4,47.59359,-54.27349
2023-03-13 18:34:00+00:00,38.0,10.75,37.0,12.29,14.4,47.59359,-54.27349
2023-03-13 18:44:00+00:00,39.0,10.55,38.0,11.66,14.4,47.59359,-54.27349
2023-03-13 18:54:00+00:00,41.0,9.86,39.0,10.97,14.4,47.59359,-54.27349
2023-03-13 19:04:00+00:00,37.0,9.43,41.0,10.7,14.4,47.59359,-54.27349
2023-03-13 19:14:01+00:00,40.0,10.08,37.0,11.57,14.16,47.59359,-54.27349
2023-03-13 19:24:01+00:00,39.0,10.63,43.0,11.5,14.16,47.59359,-54.27349
2023-03-13 19:34:01+00:00,37.0,11.34,39.0,12.65,14.16,47.59359,-54.27349
2023-03-13 19:44:01+00:00,42.0,10.14,46.0,11.66,14.16,47.59359,-54.27349
2023-03-13 19:54:01+00:00,39.0,11.1,38.0,12.87,14.16,47.59359,-54.27349
2023-03-13 20:04:01+00:00,40.0,10.59,42.0,11.66,14.16,47.59359,-54.27349
2023-03-13 20:14:00+00:00,41.0,10.58,38.0,12.05,13.68,47.59359,-54.27349
2023-03-13 20:24:00+00:00,42.0,10.11,43.0,11.73,13.68,47.59359,-54.27349
2023-03-13 20:34:00+00:00,42.0,9.92,43.0,10.97,13.68,47.59359,-54.27349
2023-03-13 20:44:00+00:00,41.0,10.09,39.0,10.97,13.68,47.59359,-54.27349
2023-03-13 20:54:00+00:00,39.0,9.98,39.0,11.52,13.68,47.59359,-54.27349
2023-03-13 21:04:00+00:00,41.0,9.06,43.0,10.26,13.68,47.59359,-54.27349
2023-03-13 21:14:00+00:00,38.0,9.77,39.0,11.1,13.21,47.59359,-54.27349
2023-03-13 21:24:00+00:00,38.0,9.32,39.0,10.38,13.21,47.59359,-54.27349
2023-03-13 21:34:00+00:00,33.0,7.97,33.0,8.75,13.21,47.59359,-54.27349
2023-03-13 21:44:00+00:00,32.0,7.1,32.0,8.33,13.21,47.59359,-54.27349
2023-03-13 21:54:00+00:00,27.0,7.74,24.0,8.78,13.21,47.59359,-54.27349
2023-03-13 22:04:00+00:00,27.0,8.08,23.0,8.65,13.21,47.59359,-54.27349
2023-03-13 22:14:00+00:00,27.0,7.97,29.0,8.96,12.57,47.59359,-54.27349
2023-03-13 22:24:00+00:00,27.0,7.54,23.0,8.29,12.57,47.59359,-54.27349
2023-03-13 22:34:00+00:00,9.0,7.59,19.0,9.18,12.57,47.59359,-54.27349
2023-03-13 22:44:00+00:00,21.0,7.19,26.0,8.5,12.57,47.59359,-54.27349
2023-03-13 22:54:00+00:00,0.0,6.8,346.0,7.99,12.57,47.59359,-54.27349
2023-03-13 23:04:00+00:00,356.0,8.17,3.0,9.4,12.57,47.59359,-54.27349
2023-03-13 23:14:00+00:00,358.0,7.96,352.0,8.84,12.33,47.59359,-54.27349
2023-03-13 23:24:00+00:00,358.0,7.63,350.0,8.62,12.33,47.59359,-54.27349
2023-03-13 23:34:00+00:00,3.0,8.03,349.0,9.05,12.33,47.59359,-54.27349
2023-03-13 23:44:00+00:00,0.0,6.85,1.0,8.07,12.33,47.59359,-54.27349
2023-03-13 23:54:00+00:00,3.0,6.18,18.0,7.28,12.33,47.59359,-54.27349
